Location: Vancouver
(49.2500°N, 123.1330°W)
Time: 18:07:41
(UTC-07:00)

Vanguard 2 Rocket - Visible Passes

Search period start: 31 March 2015 00:00
Search period end: 10 April 2015 00:00
Orbit: 555 x 3332 km, 32.9° (Epoch: 31 March)

Date Brightness Start Highest point End Pass type
(mag) Time Alt. Az. Time Alt. Az. Time Alt. Az.
31 Mar 9.3 03:31:12 18° SSE 03:31:12 18° SSE 03:34:34 10° SE visible
31 Mar 8.7 05:37:03 12° SW 05:42:08 21° S 05:46:30 10° SE visible
01 Apr 9.8 02:35:31 12° SE 02:35:31 12° SE 02:36:09 10° SE visible
01 Apr 8.8 04:41:22 21° SSW 04:43:40 23° S 04:49:00 10° SE visible
02 Apr 9.0 03:45:38 24° SSE 03:45:38 24° SSE 03:51:13 10° ESE visible
02 Apr 8.7 05:51:28 10° WSW 05:57:50 22° SSW 06:02:22 10° SE visible
03 Apr 9.4 02:49:52 20° SE 02:49:52 20° SE 02:53:08 10° ESE visible
03 Apr 8.7 04:55:43 21° SW 04:59:24 26° S 05:05:02 10° SE visible
04 Apr 9.9 01:54:04 12° ESE 01:54:04 12° ESE 01:54:41 10° ESE visible
04 Apr 8.9 03:59:54 28° S 04:00:42 29° S 04:07:25 10° SE visible
04 Apr 8.8 06:06:56 10° WSW 06:13:23 20° SSW 06:17:53 10° SSE visible
05 Apr 9.1 03:04:04 28° SSE 03:04:04 28° SSE 03:09:31 10° ESE visible
05 Apr 8.8 05:09:54 18° SW 05:15:01 26° SSW 05:20:48 10° SE visible
06 Apr 9.6 02:08:12 20° SE 02:08:12 20° SE 02:11:18 10° ESE visible
06 Apr 8.8 04:14:02 29° SSW 04:16:22 31° S 04:23:20 10° SE visible
07 Apr 10.1 01:12:18 11° ESE 01:12:18 11° ESE 01:12:41 10° ESE visible
07 Apr 9.0 03:18:08 34° S 03:18:08 34° S 03:25:35 10° ESE visible
07 Apr 8.9 05:23:58 14° WSW 05:30:30 25° SSW 05:36:15 10° SSE visible
08 Apr10.500:16:23E00:16:23E23:46:44SSWvisible
08 Apr 9.3 02:22:12 29° SE 02:22:12 29° SE 02:27:30 10° ESE visible
08 Apr 8.9 04:28:02 26° SW 04:31:54 31° SSW 04:39:01 10° SE visible
08 Apr 10.7 22:51:30 10° S 22:52:39 12° S 22:52:39 12° S visible
09 Apr 9.8 01:26:15 19° ESE 01:26:15 19° ESE 01:29:04 10° ESE visible
09 Apr 9.0 03:32:05 35° SSW 03:32:56 36° S 03:41:23 10° SE visible
09 Apr 9.0 05:37:53 10° WSW 05:45:48 21° SSW 05:51:19 10° SSE visible
09 Apr 10.5 21:54:24 10° S 21:58:47 14° SSE 21:58:47 14° SSE visible
